STARLINK-1661, 46355

Orbit data source: Space-Track

STARLINK-1661, 46355 is a payload satellite owned by SpaceX/Seattle (US) in LEO that was launched on Thu, 03 Sep 2020 UTC via an FALCON 9 launch vehicle from the Air Force Eastern Test Range (AFETR). Payload-class satellites include a variety of spacecraft equipped with specific instruments for various scientific and technological missions. These include communications satellites like Starlink; space stations such as the ISS; scientific satellites like the Hubble; Earth observation satellites from companies like Planet Labs, Umbra, and HawkEye 360; GPS; miniature CubeSats for education and research; and military/defense satellites.

Loading next visibility...
Identifier
46355, 2020-062AG
Orbit
LEO
Country
Flag of USUS
Related business
Manufacturer
SpaceX/Seattle
Mission
Operational Commercial Communications
Bus & Motor
STARLINK, Unknown motor
Mass
260 kg wet, ~248 kg dry
Launch date (UTC)
2020-09-03 (5 years ago)
Launch vehicle
FALCON 9
Launch site
Air Force Eastern Test Range (AFETR)
Object type
Payload
Rocket body
Debris
Shape & HBR
Box + 1 Pan, 10.1 m
Radar Cross Section
13.562 m², Large (>1 m²)

Expand to show TLE details & history
Last TLE update: 6 hours ago

TLE from 6 hours ago
0 STARLINK-1661
1 46355U 20062AG  26037.33335648  .00963585  00000-0  32569-1 0  9998
2 46355  53.1481 156.5652 0001412  99.6158  44.0498 15.27552315  5698
Epoch: 2026-02-06T08:00Z
TLE epoch observation values (Epoch: 2026-02-06T08:00:01.999Z)
Latitude
28.37869°
Longitude
56.33951°
Altitude
483.88 km
Speed
7.628 km/s
True Right ascension
20h 51m 16s
True Declination
28° 13' 46"
Sunlit
Object was in daylight at epoch
Visualization orbit readout
Latitude
Unknown
Longitude
Unknown
Altitude
Unknown
Speed
Unknown
Apparent Right ascension
Unknown
Apparent Declination
Unknown
Sunlit
N/A
Visualization observer readout
Local Sidereal Time
16:06:53
Azimuth
Unknown
Elevation
Unknown
Doppler factor
Unknown
Orbital elements
Apogee altitude
484.359 km
Perigee altitude
482.421 km
Semi-major axis
6,861.527 km
Eccentricity
0.00014
Inclination
53.1481°
RAAN
156.5652°
Arg. of periapsis
99.6158°
True anomaly
44.06105°
Mean anomaly
44.0498°
Eccentric anomaly
44.05543°
Mean motion
3.81867 °/min
Orbital period
94.27 mins
BSTAR
0.032569
Loading maneuver chart data...
Computing Atmospheric mass density...
Loading historical data...
Loading historical data...
Loading historical data...
Loading historical data...
Loading historical data...
Loading historical data...
Loading historical data...

Documentation

Showing up to 5 results
|